TimeAKDT,TemperatureF,Dew PointF,Humidity,Sea Level PressureIn,VisibilityMPH,Wind Direction,Wind SpeedMPH,Gust SpeedMPH,PrecipitationIn,Events,Conditions,WindDirDegrees,DateUTC
12:16 AM,24.8,21.2,86,29.79,-9999.0,East,3.5,-,N/A,,Overcast,100,2012-10-30 08:16:00
12:36 AM,24.8,23.0,93,29.79,10.0,Calm,Calm,-,N/A,,Overcast,0,2012-10-30 08:36:00
12:56 AM,24.8,23.0,93,29.78,10.0,East,4.6,-,N/A,,Overcast,90,2012-10-30 08:56:00
1:16 AM,26.6,23.0,86,29.78,10.0,East,5.8,-,N/A,,Overcast,80,2012-10-30 09:16:00
1:36 AM,26.6,24.8,93,29.79,5.0,Calm,Calm,-,N/A,,Overcast,0,2012-10-30 09:36:00
1:56 AM,26.6,24.8,93,29.79,9.0,NNE,4.6,-,N/A,,Overcast,20,2012-10-30 09:56:00
2:16 AM,26.6,24.8,93,29.79,1.2,East,4.6,-,N/A,,Overcast,100,2012-10-30 10:16:00
2:36 AM,26.6,24.8,93,29.78,4.0,ESE,4.6,-,N/A,,Overcast,110,2012-10-30 10:36:00
2:56 AM,26.6,24.8,93,29.77,10.0,Calm,Calm,-,N/A,,Overcast,0,2012-10-30 10:56:00
3:16 AM,26.6,24.8,93,29.76,10.0,East,5.8,-,N/A,,Overcast,80,2012-10-30 11:16:00
3:36 AM,26.6,24.8,93,29.76,10.0,ESE,8.1,-,N/A,,Overcast,110,2012-10-30 11:36:00
3:56 AM,26.6,23.0,86,29.77,10.0,East,6.9,-,N/A,,Overcast,80,2012-10-30 11:56:00
4:16 AM,26.6,21.2,80,29.77,10.0,ENE,4.6,-,N/A,,Overcast,70,2012-10-30 12:16:00
4:36 AM,26.6,21.2,80,29.76,10.0,ENE,4.6,-,N/A,,Overcast,60,2012-10-30 12:36:00
4:56 AM,24.8,21.2,86,29.76,10.0,ENE,6.9,-,N/A,,Overcast,70,2012-10-30 12:56:00
5:16 AM,24.8,21.2,86,29.75,2.5,East,6.9,-,N/A,,Overcast,100,2012-10-30 13:16:00
5:36 AM,24.8,21.2,86,29.75,10.0,East,4.6,-,N/A,,Mostly Cloudy,80,2012-10-30 13:36:00
5:56 AM,24.8,21.2,86,29.74,10.0,Calm,Calm,-,N/A,,Overcast,0,2012-10-30 13:56:00
6:16 AM,24.8,21.2,86,29.74,-9999.0,Calm,Calm,-,N/A,,Overcast,0,2012-10-30 14:16:00
6:36 AM,24.8,21.2,86,29.74,10.0,East,3.5,-,N/A,,Overcast,80,2012-10-30 14:36:00
6:56 AM,24.8,21.2,86,29.75,10.0,NE,4.6,-,N/A,,Overcast,40,2012-10-30 14:56:00
7:16 AM,26.6,19.4,74,29.75,9.0,NNE,5.8,-,N/A,,Overcast,20,2012-10-30 15:16:00
7:36 AM,26.6,19.4,74,29.74,9.0,NNE,3.5,-,N/A,,Overcast,20,2012-10-30 15:36:00
7:56 AM,26.6,19.4,74,29.74,10.0,North,9.2,16.1,N/A,,Overcast,360,2012-10-30 15:56:00
8:16 AM,28.4,17.6,64,29.73,10.0,North,5.8,-,N/A,,Overcast,360,2012-10-30 16:16:00
8:36 AM,28.4,17.6,64,29.73,10.0,North,5.8,-,N/A,,Overcast,10,2012-10-30 16:36:00
8:56 AM,28.4,15.8,59,29.72,10.0,NNW,6.9,-,N/A,,Overcast,340,2012-10-30 16:56:00
9:16 AM,28.4,14.0,55,29.71,10.0,NNW,5.8,-,N/A,,Overcast,340,2012-10-30 17:16:00
9:36 AM,28.4,12.2,51,29.71,10.0,North,4.6,-,N/A,,Overcast,350,2012-10-30 17:36:00
9:56 AM,28.4,10.4,47,29.71,10.0,North,4.6,-,N/A,,Overcast,360,2012-10-30 17:56:00
10:16 AM,30.2,10.4,44,29.71,10.0,NNW,8.1,-,N/A,,Overcast,340,2012-10-30 18:16:00
10:36 AM,30.2,10.4,44,29.71,10.0,North,10.4,20.7,N/A,,Overcast,10,2012-10-30 18:36:00
10:56 AM,30.2,10.4,44,29.71,10.0,North,15.0,19.6,N/A,,Overcast,10,2012-10-30 18:56:00
11:16 AM,30.2,8.6,40,29.71,10.0,North,12.7,21.9,N/A,,Overcast,350,2012-10-30 19:16:00
11:36 AM,30.2,8.6,40,29.70,9.0,NNW,13.8,20.7,N/A,,Overcast,330,2012-10-30 19:36:00
11:56 AM,30.2,8.6,40,29.70,10.0,North,6.9,18.4,N/A,,Overcast,350,2012-10-30 19:56:00
12:16 PM,30.2,8.6,40,29.71,10.0,North,12.7,18.4,N/A,,Overcast,350,2012-10-30 20:16:00
12:36 PM,30.2,8.6,40,29.70,9.0,NNW,11.5,19.6,N/A,,Overcast,340,2012-10-30 20:36:00
12:56 PM,30.2,8.6,40,29.70,9.0,North,13.8,27.6,N/A,,Overcast,360,2012-10-30 20:56:00
1:16 PM,30.2,8.6,40,29.69,10.0,NNW,12.7,23.0,N/A,,Overcast,340,2012-10-30 21:16:00
1:36 PM,30.2,8.6,40,29.69,10.0,NNW,8.1,21.9,N/A,,Overcast,340,2012-10-30 21:36:00
1:56 PM,30.2,6.8,37,29.69,10.0,North,12.7,26.5,N/A,,Overcast,360,2012-10-30 21:56:00
2:16 PM,30.2,6.8,37,29.69,10.0,North,16.1,23.0,N/A,,Overcast,350,2012-10-30 22:16:00
2:36 PM,30.2,6.8,37,29.68,10.0,North,12.7,24.2,N/A,,Overcast,350,2012-10-30 22:36:00
2:56 PM,30.2,6.8,37,29.67,10.0,NNW,10.4,20.7,N/A,,Overcast,340,2012-10-30 22:56:00
3:16 PM,30.2,6.8,37,29.67,10.0,North,12.7,21.9,N/A,,Overcast,350,2012-10-30 23:16:00
3:36 PM,30.2,6.8,37,29.66,10.0,North,12.7,19.6,N/A,,Overcast,350,2012-10-30 23:36:00
3:56 PM,30.2,6.8,37,29.65,10.0,NNW,13.8,23.0,N/A,,Mostly Cloudy,340,2012-10-30 23:56:00
4:16 PM,30.2,6.8,37,29.65,10.0,North,12.7,19.6,N/A,,Partly Cloudy,350,2012-10-31 00:16:00
4:36 PM,30.2,6.8,37,29.65,10.0,North,11.5,16.1,N/A,,Partly Cloudy,350,2012-10-31 00:36:00
4:56 PM,30.2,6.8,37,29.64,10.0,North,8.1,16.1,N/A,,Partly Cloudy,350,2012-10-31 00:56:00
5:16 PM,30.2,6.8,37,29.64,10.0,NNW,5.8,18.4,N/A,,Clear,340,2012-10-31 01:16:00
5:36 PM,30.2,6.8,37,29.63,10.0,NNW,9.2,19.6,N/A,,Scattered Clouds,340,2012-10-31 01:36:00
5:56 PM,30.2,6.8,37,29.63,10.0,North,9.2,19.6,N/A,,Mostly Cloudy,350,2012-10-31 01:56:00
6:16 PM,30.2,6.8,37,29.63,10.0,North,10.4,16.1,N/A,,Overcast,350,2012-10-31 02:16:00
6:36 PM,30.2,5.0,34,29.63,10.0,North,12.7,17.3,N/A,,Scattered Clouds,350,2012-10-31 02:36:00
6:56 PM,30.2,5.0,34,29.62,10.0,NNW,10.4,19.6,N/A,,Scattered Clouds,340,2012-10-31 02:56:00
7:16 PM,30.2,6.8,37,29.62,10.0,North,9.2,20.7,N/A,,Mostly Cloudy,350,2012-10-31 03:16:00
7:36 PM,30.2,5.0,34,29.62,10.0,North,16.1,27.6,N/A,,Overcast,350,2012-10-31 03:36:00
7:56 PM,30.2,5.0,34,29.62,10.0,North,12.7,23.0,N/A,,Mostly Cloudy,350,2012-10-31 03:56:00
8:16 PM,30.2,5.0,34,29.62,10.0,North,10.4,19.6,N/A,,Overcast,350,2012-10-31 04:16:00
8:36 PM,30.2,5.0,34,29.62,10.0,North,10.4,20.7,N/A,,Overcast,350,2012-10-31 04:36:00
8:56 PM,30.2,5.0,34,29.62,10.0,NNW,8.1,21.9,N/A,,Overcast,340,2012-10-31 04:56:00
9:16 PM,28.4,5.0,37,29.61,10.0,North,11.5,21.9,N/A,,Overcast,350,2012-10-31 05:16:00
9:36 PM,28.4,5.0,37,29.61,10.0,North,13.8,25.3,N/A,,Mostly Cloudy,350,2012-10-31 05:36:00
9:56 PM,28.4,5.0,37,29.60,10.0,North,15.0,25.3,N/A,,Overcast,350,2012-10-31 05:56:00
10:16 PM,28.4,5.0,37,29.60,10.0,NNW,11.5,24.2,N/A,,Overcast,340,2012-10-31 06:16:00
10:36 PM,28.4,5.0,37,29.60,10.0,North,11.5,18.4,N/A,,Overcast,350,2012-10-31 06:36:00
10:56 PM,28.4,5.0,37,29.60,10.0,NNW,13.8,20.7,N/A,,Overcast,340,2012-10-31 06:56:00
11:16 PM,28.4,5.0,37,29.59,10.0,North,11.5,21.9,N/A,,Overcast,350,2012-10-31 07:16:00
11:36 PM,28.4,5.0,37,29.59,10.0,North,8.1,23.0,N/A,,Overcast,360,2012-10-31 07:36:00
11:56 PM,28.4,5.0,37,29.58,10.0,North,9.2,20.7,N/A,,Mostly Cloudy,360,2012-10-31 07:56:00